| time (UTC) | temp F | wind direction | speed MPH | gust MPH | rain 1hr in | rain 24hr in | rain mn in | humidity % | barometer mb |
| 20260510102056 | 67 | 142 | 2.0 | 5.0 | 0.00 | 0.00 | 0.00 | 79 | 1013.2 |
| 20260510101555 | 67 | 86 | 1.0 | 8.0 | 0.00 | 0.00 | 0.00 | 80 | 1013.1 |
| 20260510101055 | 67 | 65 | 2.0 | 8.0 | 0.00 | 0.00 | 0.00 | 80 | 1013.2 |
| 20260510100559 | 67 | 67 | 1.0 | 9.0 | 0.00 | 0.00 | 0.00 | 80 | 1013.0 |
| 20260510100054 | 67 | 87 | 2.0 | 10.0 | 0.00 | 0.00 | 0.00 | 79 | 1013.1 |
| 20260510095556 | 67 | 67 | 3.0 | 10.0 | 0.00 | 0.00 | 0.00 | 79 | 1013.2 |
| 20260510095055 | 66 | 46 | 3.0 | 11.0 | 0.00 | 0.00 | 0.00 | 78 | 1013.2 |
| 20260510094608 | 67 | 89 | 5.0 | 11.0 | 0.00 | 0.00 | 0.00 | 78 | 1013.3 |
| 20260510094056 | 67 | 49 | 5.0 | 13.0 | 0.00 | 0.00 | 0.00 | 77 | 1013.3 |
| 20260510093555 | 67 | 69 | 5.0 | 13.0 | 0.00 | 0.00 | 0.00 | 77 | 1013.3 |
| 20260510093118 | 67 | 55 | 5.0 | 13.0 | 0.00 | 0.00 | 0.00 | 76 | 1013.3 |
| 20260510092556 | 68 | 61 | 6.0 | 14.0 | 0.00 | 0.00 | 0.00 | 76 | 1013.5 |
| 20260510092055 | 69 | 88 | 7.0 | 14.0 | 0.00 | 0.00 | 0.00 | 75 | 1013.4 |
| 20260510091559 | 70 | 78 | 4.0 | 13.0 | 0.00 | 0.00 | 0.00 | 73 | 1013.3 |
| 20260510091055 | 70 | 65 | 5.0 | 14.0 | 0.00 | 0.00 | 0.00 | 73 | 1012.9 |
| 20260510090600 | 71 | 71 | 4.0 | 14.0 | 0.00 | 0.00 | 0.00 | 73 | 1012.7 |
| 20260510090055 | 72 | 89 | 4.0 | 10.0 | 0.00 | 0.00 | 0.00 | 74 | 1012.6 |
| 20260510085556 | 72 | 26 | 4.0 | 10.0 | 0.00 | 0.00 | 0.00 | 73 | 1012.4 |
| 20260510085054 | 72 | 74 | 3.0 | 13.0 | 0.00 | 0.00 | 0.00 | 73 | 1012.0 |
| 20260510084601 | 72 | 37 | 4.0 | 15.0 | 0.00 | 0.00 | 0.00 | 72 | 1011.7 |
| 20260510084055 | 72 | 40 | 6.0 | 15.0 | 0.00 | 0.00 | 0.00 | 72 | 1011.6 |
| 20260510083555 | 72 | 59 | 7.0 | 15.0 | 0.00 | 0.00 | 0.00 | 73 | 1011.3 |
| 20260510083058 | 72 | 49 | 4.0 | 9.0 | 0.00 | 0.00 | 0.00 | 74 | 1011.8 |
| 20260510082559 | 72 | 51 | 3.0 | 8.0 | 0.00 | 0.00 | 0.00 | 75 | 1012.2 |
| 20260510082055 | 73 | 63 | 3.0 | 9.0 | 0.00 | 0.00 | 0.00 | 77 | 1012.3 |
| 20260510081556 | 73 | 61 | 2.0 | 9.0 | 0.00 | 0.00 | 0.00 | 78 | 1012.5 |
| 20260510081058 | 73 | 83 | 4.0 | 14.0 | 0.00 | 0.00 | 0.00 | 79 | 1012.6 |
| 20260510080554 | 74 | 82 | 4.0 | 14.0 | 0.00 | 0.00 | 0.00 | 80 | 1012.4 |
| 20260510080056 | 74 | 63 | 3.0 | 9.0 | 0.00 | 0.00 | 0.00 | 80 | 1012.6 |
| 20260510075554 | 74 | 80 | 2.0 | 7.0 | 0.00 | 0.00 | 0.00 | 80 | 1012.4 |
| 20260510075055 | 74 | 78 | 3.0 | 10.0 | 0.00 | 0.00 | 0.00 | 80 | 1012.3 |
| 20260510074553 | 74 | 78 | 3.0 | 10.0 | 0.00 | 0.00 | 0.00 | 79 | 1012.7 |
| 20260510074055 | 75 | 360 | 3.0 | 10.0 | 0.00 | 0.00 | 0.00 | 78 | 1012.8 |
| 20260510073555 | 75 | 313 | 0.0 | 5.0 | 0.00 | 0.00 | 0.00 | 78 | 1012.5 |
| 20260510073056 | 75 | 0 | 1.0 | 4.0 | 0.00 | 0.00 | 0.00 | 78 | 1011.7 |
| 20260510072555 | 75 | 0 | 1.0 | 4.0 | 0.00 | 0.00 | 0.00 | 77 | 1011.2 |
| 20260510072055 | 75 | 78 | 1.0 | 5.0 | 0.00 | 0.00 | 0.00 | 77 | 1010.9 |
| 20260510071556 | 75 | 69 | 1.0 | 5.0 | 0.00 | 0.00 | 0.00 | 76 | 1010.7 |
| 20260510071055 | 75 | 70 | 1.0 | 7.0 | 0.00 | 0.00 | 0.00 | 75 | 1010.6 |
| 20260510070555 | 76 | 76 | 1.0 | 7.0 | 0.00 | 0.00 | 0.00 | 74 | 1010.4 |
| 20260510070054 | 76 | 0 | 1.0 | 4.0 | 0.00 | 0.00 | 0.00 | 73 | 1010.3 |
| 20260510065557 | 76 | 0 | 0.0 | 2.0 | 0.00 | 0.00 | 0.00 | 72 | 1010.2 |
| 20260510065055 | 76 | 70 | 0.0 | 4.0 | 0.00 | 0.00 | 0.00 | 71 | 1010.2 |
| 20260510064553 | 76 | 70 | 0.0 | 6.0 | 0.00 | 0.00 | 0.00 | 71 | 1010.2 |
| 20260510064055 | 76 | 0 | 1.0 | 8.0 | 0.00 | 0.00 | 0.00 | 71 | 1010.2 |
| 20260510063557 | 76 | 77 | 3.0 | 8.0 | 0.00 | 0.00 | 0.00 | 70 | 1010.0 |
| 20260510063056 | 77 | 46 | 1.0 | 11.0 | 0.00 | 0.00 | 0.00 | 70 | 1009.9 |
| 20260510062557 | 77 | 85 | 2.0 | 11.0 | 0.00 | 0.00 | 0.00 | 69 | 1009.9 |
| 20260510062055 | 77 | 76 | 3.0 | 12.0 | 0.00 | 0.00 | 0.00 | 69 | 1009.7 |
| 20260510061554 | 77 | 35 | 3.0 | 12.0 | 0.00 | 0.00 | 0.00 | 69 | 1009.9 |
| 20260510061055 | 77 | 93 | 3.0 | 12.0 | 0.00 | 0.00 | 0.00 | 68 | 1009.9 |
| 20260510060555 | 77 | 59 | 4.0 | 14.0 | 0.00 | 0.00 | 0.00 | 68 | 1010.1 |
| 20260510060054 | 77 | 86 | 7.0 | 14.0 | 0.00 | 0.00 | 0.00 | 68 | 1011.0 |
| 20260510055554 | 77 | 53 | 6.0 | 13.0 | 0.00 | 0.00 | 0.00 | 69 | 1011.8 |
| 20260510055055 | 76 | 51 | 5.0 | 12.0 | 0.00 | 0.00 | 0.00 | 70 | 1012.4 |
| 20260510054556 | 76 | 144 | 4.0 | 11.0 | 0.00 | 0.00 | 0.00 | 71 | 1012.7 |
| 20260510054054 | 76 | 92 | 3.0 | 14.0 | 0.00 | 0.00 | 0.00 | 71 | 1012.5 |
| 20260510053555 | 75 | 20 | 4.0 | 14.0 | 0.00 | 0.00 | 0.00 | 72 | 1012.1 |
| 20260510053101 | 75 | 41 | 4.0 | 11.0 | 0.00 | 0.00 | 0.00 | 72 | 1011.6 |
| 20260510052555 | 75 | 355 | 5.0 | 11.0 | 0.00 | 0.00 | 0.00 | 71 | 1011.5 |
| 20260510052055 | 75 | 322 | 0.0 | 3.0 | 0.00 | 0.00 | 0.00 | 70 | 1010.8 |
| 20260510051557 | 75 | 0 | 0.0 | 2.0 | 0.00 | 0.00 | 0.00 | 70 | 1009.6 |
| 20260510051055 | 75 | 0 | 0.0 | 3.0 | 0.00 | 0.00 | 0.00 | 70 | 1009.1 |
| 20260510050600 | 75 | 0 | 0.0 | 4.0 | 0.00 | 0.00 | 0.00 | 70 | 1009.0 |
| 20260510050058 | 76 | 0 | 0.0 | 4.0 | 0.00 | 0.00 | 0.00 | 70 | 1009.0 |
| 20260510045555 | 76 | 196 | 0.0 | 4.0 | 0.00 | 0.00 | 0.00 | 70 | 1009.1 |
| 20260510045055 | 76 | 0 | 0.0 | 4.0 | 0.00 | 0.00 | 0.00 | 70 | 1009.1 |
| 20260510044553 | 76 | 119 | 0.0 | 4.0 | 0.00 | 0.00 | 0.00 | 69 | 1009.0 |
| 20260510044055 | 76 | 76 | 1.0 | 4.0 | 0.00 | 0.00 | 0.00 | 69 | 1008.8 |
| 20260510043556 | 76 | 98 | 0.0 | 8.0 | 0.00 | 0.00 | 0.00 | 69 | 1008.7 |
| 20260510043101 | 76 | 196 | 0.0 | 8.0 | 0.00 | 0.00 | 0.00 | 69 | 1008.6 |
| 20260510042556 | 76 | 0 | 1.0 | 8.0 | 0.00 | 0.00 | 0.00 | 69 | 1008.4 |
| 20260510042059 | 76 | 168 | 0.0 | 3.0 | 0.00 | 0.00 | 0.00 | 69 | 1008.4 |
| 20260510041554 | 76 | 0 | 0.0 | 4.0 | 0.00 | 0.00 | 0.00 | 69 | 1008.4 |
| 20260510041055 | 76 | 0 | 0.0 | 6.0 | 0.00 | 0.00 | 0.00 | 69 | 1008.5 |
| 20260510040557 | 76 | 121 | 1.0 | 6.0 | 0.00 | 0.00 | 0.00 | 69 | 1008.5 |
| 20260510040057 | 76 | 0 | 0.0 | 5.0 | 0.00 | 0.00 | 0.00 | 69 | 1008.5 |
| 20260510035555 | 76 | 161 | 1.0 | 5.0 | 0.00 | 0.00 | 0.00 | 69 | 1008.5 |
| 20260510035057 | 76 | 321 | 0.0 | 4.0 | 0.00 | 0.00 | 0.00 | 69 | 1008.6 |
| 20260510034557 | 76 | 0 | 0.0 | 4.0 | 0.00 | 0.00 | 0.00 | 68 | 1008.6 |
| 20260510034055 | 76 | 0 | 0.0 | 4.0 | 0.00 | 0.00 | 0.00 | 68 | 1008.7 |
| 20260510033554 | 76 | 86 | 0.0 | 4.0 | 0.00 | 0.00 | 0.00 | 68 | 1008.9 |
| 20260510033112 | 76 | 84 | 1.0 | 6.0 | 0.00 | 0.00 | 0.00 | 68 | 1008.9 |
| 20260510032555 | 76 | 107 | 0.0 | 6.0 | 0.00 | 0.00 | 0.00 | 68 | 1008.8 |
| 20260510032055 | 76 | 0 | 0.0 | 4.0 | 0.00 | 0.00 | 0.00 | 67 | 1008.8 |
| 20260510031558 | 77 | 0 | 0.0 | 4.0 | 0.00 | 0.00 | 0.00 | 66 | 1008.9 |
| 20260510031056 | 77 | 0 | 0.0 | 3.0 | 0.00 | 0.00 | 0.00 | 66 | 1008.9 |
| 20260510030555 | 77 | 0 | 0.0 | 3.0 | 0.00 | 0.00 | 0.00 | 66 | 1008.8 |
| 20260510030104 | 77 | 96 | 0.0 | 2.0 | 0.00 | 0.00 | 0.00 | 65 | 1009.0 |
| 20260510025555 | 78 | 0 | 0.0 | 2.0 | 0.00 | 0.00 | 0.00 | 65 | 1009.1 |
| 20260510025055 | 78 | 84 | 0.0 | 3.0 | 0.00 | 0.00 | 0.00 | 64 | 1009.1 |
| 20260510024604 | 78 | 0 | 0.0 | 3.0 | 0.00 | 0.00 | 0.00 | 64 | 1009.1 |
| 20260510024055 | 78 | 71 | 0.0 | 4.0 | 0.00 | 0.00 | 0.00 | 64 | 1009.0 |
| 20260510023554 | 78 | 82 | 0.0 | 4.0 | 0.00 | 0.00 | 0.00 | 63 | 1009.0 |
| 20260510023054 | 78 | 85 | 1.0 | 4.0 | 0.00 | 0.00 | 0.00 | 63 | 1009.0 |
| 20260510022556 | 79 | 100 | 1.0 | 5.0 | 0.00 | 0.00 | 0.00 | 63 | 1009.0 |
| 20260510022055 | 79 | 0 | 1.0 | 5.0 | 0.00 | 0.00 | 0.00 | 63 | 1008.9 |
| 20260510021559 | 79 | 86 | 1.0 | 6.0 | 0.00 | 0.00 | 0.00 | 62 | 1008.8 |
| 20260510021054 | 79 | 0 | 1.0 | 6.0 | 0.00 | 0.00 | 0.00 | 62 | 1008.8 |
| 20260510020555 | 80 | 74 | 1.0 | 4.0 | 0.00 | 0.00 | 0.00 | 62 | 1008.8 |
| 20260510015556 | 80 | 84 | 1.0 | 4.0 | 0.00 | 0.00 | 0.00 | 63 | 1008.7 |
| 20260510015055 | 80 | 58 | 1.0 | 4.0 | 0.00 | 0.00 | 0.00 | 63 | 1008.7 |
| 20260510014600 | 81 | 0 | 1.0 | 6.0 | 0.00 | 0.00 | 0.00 | 63 | 1008.8 |
| 20260510014055 | 81 | 95 | 1.0 | 6.0 | 0.00 | 0.00 | 0.00 | 63 | 1008.7 |
| 20260510013555 | 81 | 0 | 1.0 | 7.0 | 0.00 | 0.00 | 0.00 | 62 | 1008.7 |
| 20260510013100 | 82 | 109 | 1.0 | 7.0 | 0.00 | 0.00 | 0.00 | 62 | 1008.5 |
| 20260510012556 | 82 | 93 | 1.0 | 6.0 | 0.00 | 0.00 | 0.00 | 62 | 1008.5 |
| 20260510012055 | 82 | 34 | 1.0 | 6.0 | 0.00 | 0.00 | 0.00 | 61 | 1008.3 |
| 20260510011557 | 83 | 96 | 2.0 | 5.0 | 0.00 | 0.00 | 0.00 | 61 | 1008.2 |
| 20260510011054 | 83 | 96 | 2.0 | 8.0 | 0.00 | 0.00 | 0.00 | 60 | 1008.2 |
| 20260510010554 | 84 | 85 | 1.0 | 8.0 | 0.00 | 0.00 | 0.00 | 60 | 1008.0 |
| 20260510010059 | 84 | 86 | 1.0 | 7.0 | 0.00 | 0.00 | 0.00 | 59 | 1008.0 |
| 20260510005555 | 85 | 63 | 2.0 | 7.0 | 0.00 | 0.00 | 0.00 | 58 | 1007.9 |
| 20260510005054 | 85 | 78 | 2.0 | 9.0 | 0.00 | 0.00 | 0.00 | 58 | 1008.0 |
| 20260510004602 | 86 | 92 | 3.0 | 9.0 | 0.00 | 0.00 | 0.00 | 57 | 1007.8 |
| 20260510004055 | 87 | 78 | 2.0 | 9.0 | 0.00 | 0.00 | 0.00 | 56 | 1007.7 |
| 20260510003555 | 87 | 60 | 1.0 | 7.0 | 0.00 | 0.00 | 0.00 | 55 | 1007.8 |
| 20260510003103 | 88 | 107 | 0.0 | 4.0 | 0.00 | 0.00 | 0.00 | 52 | 1007.7 |
| 20260510002556 | 88 | 97 | 1.0 | 3.0 | 0.00 | 0.00 | 0.00 | 50 | 1007.7 |
| 20260510002054 | 88 | 158 | 1.0 | 3.0 | 0.00 | 0.00 | 0.00 | 49 | 1007.7 |
| 20260510001600 | 89 | 0 | 0.0 | 6.0 | 0.00 | 0.00 | 0.00 | 48 | 1007.7 |
| 20260510001055 | 89 | 0 | 0.0 | 6.0 | 0.00 | 0.00 | 0.00 | 48 | 1007.8 |
| 20260510000554 | 89 | 90 | 1.0 | 6.0 | 0.00 | 0.00 | 0.00 | 46 | 1007.8 |
| 20260510000104 | 89 | 130 | 0.0 | 3.0 | 0.00 | 0.00 | 0.00 | 47 | 1007.9 |
| 20260509235557 | 90 | 0 | 0.0 | 3.0 | 0.00 | 0.00 | 0.00 | 46 | 1007.9 |
| 20260509235054 | 90 | 182 | 0.0 | 3.0 | 0.00 | 0.00 | 0.00 | 47 | 1007.9 |
| 20260509234601 | 90 | 190 | 1.0 | 3.0 | 0.00 | 0.00 | 0.00 | 47 | 1008.1 |
| 20260509234055 | 90 | 0 | 0.0 | 2.0 | 0.00 | 0.00 | 0.00 | 46 | 1008.0 |
| 20260509233554 | 90 | 194 | 0.0 | 6.0 | 0.00 | 0.00 | 0.00 | 47 | 1008.0 |
| 20260509233101 | 90 | 103 | 0.0 | 7.0 | 0.00 | 0.00 | 0.00 | 46 | 1008.1 |
| 20260509232555 | 90 | 60 | 1.0 | 7.0 | 0.00 | 0.00 | 0.00 | 44 | 1008.1 |
| 20260509232055 | 90 | 0 | 1.0 | 7.0 | 0.00 | 0.00 | 0.00 | 46 | 1008.1 |
| 20260509231601 | 90 | 70 | 1.0 | 7.0 | 0.00 | 0.00 | 0.00 | 44 | 1008.1 |
| 20260509231054 | 90 | 59 | 2.0 | 8.0 | 0.00 | 0.00 | 0.00 | 45 | 1008.1 |
| 20260509230557 | 90 | 63 | 1.0 | 8.0 | 0.00 | 0.00 | 0.00 | 45 | 1008.1 |
| 20260509230058 | 90 | 0 | 2.0 | 8.0 | 0.00 | 0.00 | 0.00 | 44 | 1008.1 |
| 20260509225555 | 90 | 64 | 3.0 | 7.0 | 0.00 | 0.00 | 0.00 | 45 | 1008.2 |
| 20260509225054 | 91 | 76 | 2.0 | 5.0 | 0.00 | 0.00 | 0.00 | 44 | 1008.2 |
| 20260509224557 | 91 | 78 | 1.0 | 4.0 | 0.00 | 0.00 | 0.00 | 45 | 1008.2 |
| 20260509224054 | 91 | 78 | 0.0 | 4.0 | 0.00 | 0.00 | 0.00 | 44 | 1008.1 |
| 20260509223558 | 90 | 90 | 1.0 | 4.0 | 0.00 | 0.00 | 0.00 | 44 | 1008.1 |
| 20260509223102 | 91 | 96 | 0.0 | 4.0 | 0.00 | 0.00 | 0.00 | 44 | 1008.0 |
| 20260509222555 | 90 | 0 | 0.0 | 5.0 | 0.00 | 0.00 | 0.00 | 42 | 1008.0 |
| 20260509222053 | 91 | 74 | 1.0 | 5.0 | 0.00 | 0.00 | 0.00 | 41 | 1008.1 |
| 20260509221559 | 91 | 0 | 0.0 | 6.0 | 0.00 | 0.00 | 0.00 | 44 | 1008.1 |
| 20260509221055 | 90 | 355 | 3.0 | 6.0 | 0.00 | 0.00 | 0.00 | 42 | 1008.0 |
| 20260509220555 | 91 | 0 | 0.0 | 5.0 | 0.00 | 0.00 | 0.00 | 41 | 1008.0 |
| 20260509220055 | 90 | 72 | 1.0 | 4.0 | 0.00 | 0.00 | 0.00 | 42 | 1008.1 |
| 20260509215554 | 90 | 59 | 1.0 | 4.0 | 0.00 | 0.00 | 0.00 | 44 | 1008.1 |
| 20260509215055 | 91 | 0 | 0.0 | 6.0 | 0.00 | 0.00 | 0.00 | 44 | 1008.1 |
| 20260509214615 | 90 | 44 | 1.0 | 7.0 | 0.00 | 0.00 | 0.00 | 45 | 1008.2 |
| 20260509214055 | 90 | 61 | 2.0 | 7.0 | 0.00 | 0.00 | 0.00 | 45 | 1008.2 |
| 20260509213555 | 90 | 63 | 3.0 | 8.0 | 0.00 | 0.00 | 0.00 | 45 | 1008.2 |
| 20260509213057 | 90 | 78 | 2.0 | 8.0 | 0.00 | 0.00 | 0.00 | 45 | 1008.5 |
| 20260509212555 | 90 | 63 | 1.0 | 5.0 | 0.00 | 0.00 | 0.00 | 45 | 1008.5 |
| 20260509212054 | 90 | 53 | 1.0 | 6.0 | 0.00 | 0.00 | 0.00 | 46 | 1008.5 |
| 20260509211554 | 90 | 84 | 2.0 | 8.0 | 0.00 | 0.00 | 0.00 | 47 | 1008.6 |
| 20260509211058 | 90 | 50 | 1.0 | 8.0 | 0.00 | 0.00 | 0.00 | 47 | 1008.6 |
| 20260509210555 | 90 | 78 | 2.0 | 6.0 | 0.00 | 0.00 | 0.00 | 47 | 1008.7 |
| 20260509210106 | 91 | 63 | 0.0 | 5.0 | 0.00 | 0.00 | 0.00 | 48 | 1008.7 |
| 20260509205554 | 90 | 92 | 0.0 | 7.0 | 0.00 | 0.00 | 0.00 | 49 | 1008.8 |
| 20260509205054 | 90 | 90 | 2.0 | 8.0 | 0.00 | 0.00 | 0.00 | 48 | 1009.0 |
| 20260509204555 | 90 | 107 | 2.0 | 9.0 | 0.00 | 0.00 | 0.00 | 49 | 1009.1 |
| 20260509204054 | 89 | 0 | 3.0 | 9.0 | 0.00 | 0.00 | 0.00 | 48 | 1009.1 |
| 20260509203558 | 89 | 94 | 3.0 | 9.0 | 0.00 | 0.00 | 0.00 | 49 | 1009.2 |
| 20260509203110 | 89 | 14 | 2.0 | 9.0 | 0.00 | 0.00 | 0.00 | 48 | 1009.2 |
| 20260509202555 | 89 | 69 | 3.0 | 9.0 | 0.00 | 0.00 | 0.00 | 49 | 1009.2 |
| 20260509202054 | 90 | 73 | 2.0 | 6.0 | 0.00 | 0.00 | 0.00 | 51 | 1009.2 |
| 20260509201557 | 89 | 0 | 1.0 | 8.0 | 0.00 | 0.00 | 0.00 | 51 | 1009.2 |
| 20260509201055 | 89 | 59 | 2.0 | 8.0 | 0.00 | 0.00 | 0.00 | 50 | 1009.2 |
| 20260509200558 | 90 | 71 | 1.0 | 6.0 | 0.00 | 0.00 | 0.00 | 52 | 1009.2 |
| 20260509200055 | 89 | 210 | 1.0 | 9.0 | 0.00 | 0.00 | 0.00 | 51 | 1009.4 |
| 20260509195554 | 89 | 43 | 2.0 | 9.0 | 0.00 | 0.00 | 0.00 | 52 | 1009.5 |
| 20260509195056 | 89 | 22 | 2.0 | 7.0 | 0.00 | 0.00 | 0.00 | 51 | 1009.5 |
| 20260509194555 | 89 | 68 | 2.0 | 7.0 | 0.00 | 0.00 | 0.00 | 51 | 1009.6 |
| 20260509194054 | 89 | 60 | 1.0 | 4.0 | 0.00 | 0.00 | 0.00 | 52 | 1009.6 |
| 20260509193555 | 89 | 69 | 1.0 | 7.0 | 0.00 | 0.00 | 0.00 | 54 | 1009.7 |
| 20260509193101 | 88 | 350 | 1.0 | 9.0 | 0.00 | 0.00 | 0.00 | 55 | 1009.8 |
| 20260509192557 | 88 | 80 | 1.0 | 9.0 | 0.00 | 0.00 | 0.00 | 55 | 1009.8 |
| 20260509192054 | 88 | 74 | 3.0 | 9.0 | 0.00 | 0.00 | 0.00 | 54 | 1009.7 |
| 20260509191607 | 88 | 0 | 0.0 | 5.0 | 0.00 | 0.00 | 0.00 | 55 | 1009.7 |
| 20260509191057 | 88 | 348 | 1.0 | 6.0 | 0.00 | 0.00 | 0.00 | 54 | 1009.8 |
| 20260509190557 | 89 | 69 | 2.0 | 6.0 | 0.00 | 0.00 | 0.00 | 53 | 1009.9 |
| 20260509190058 | 88 | 0 | 1.0 | 6.0 | 0.00 | 0.00 | 0.00 | 59 | 1009.9 |
| 20260509185556 | 88 | 0 | 0.0 | 7.0 | 0.00 | 0.00 | 0.00 | 54 | 1009.9 |
| 20260509185055 | 88 | 49 | 1.0 | 9.0 | 0.00 | 0.00 | 0.00 | 58 | 1009.9 |
| 20260509184600 | 87 | 75 | 2.0 | 9.0 | 0.00 | 0.00 | 0.00 | 59 | 1010.0 |
| 20260509184054 | 87 | 61 | 2.0 | 8.0 | 0.00 | 0.00 | 0.00 | 58 | 1010.0 |
| 20260509183555 | 87 | 37 | 0.0 | 6.0 | 0.00 | 0.00 | 0.00 | 59 | 1009.9 |
| 20260509183104 | 87 | 48 | 1.0 | 6.0 | 0.00 | 0.00 | 0.00 | 57 | 1010.0 |
| 20260509182557 | 87 | 306 | 1.0 | 4.0 | 0.00 | 0.00 | 0.00 | 56 | 1010.0 |
| 20260509182054 | 87 | 17 | 1.0 | 8.0 | 0.00 | 0.00 | 0.00 | 56 | 1010.0 |
| 20260509181603 | 86 | 0 | 1.0 | 8.0 | 0.00 | 0.00 | 0.00 | 57 | 1010.1 |
| 20260509181055 | 87 | 16 | 2.0 | 7.0 | 0.00 | 0.00 | 0.00 | 56 | 1010.2 |
| 20260509180554 | 86 | 0 | 2.0 | 8.0 | 0.00 | 0.00 | 0.00 | 53 | 1010.2 |
| 20260509180057 | 86 | 78 | 3.0 | 10.0 | 0.00 | 0.00 | 0.00 | 58 | 1010.3 |
| 20260509175557 | 86 | 113 | 1.0 | 10.0 | 0.00 | 0.00 | 0.00 | 60 | 1010.3 |
| 20260509175054 | 85 | 60 | 2.0 | 7.0 | 0.00 | 0.00 | 0.00 | 58 | 1010.4 |
| 20260509174620 | 85 | 61 | 2.0 | 6.0 | 0.00 | 0.00 | 0.00 | 60 | 1010.5 |
| 20260509174056 | 86 | 11 | 1.0 | 5.0 | 0.00 | 0.00 | 0.00 | 59 | 1010.6 |
| 20260509173554 | 85 | 79 | 3.0 | 5.0 | 0.00 | 0.00 | 0.00 | 61 | 1010.6 |
| 20260509173059 | 85 | 77 | 1.0 | 5.0 | 0.00 | 0.00 | 0.00 | 58 | 1010.7 |
| 20260509172557 | 85 | 107 | 1.0 | 9.0 | 0.00 | 0.00 | 0.00 | 58 | 1010.7 |
| 20260509172055 | 84 | 302 | 2.0 | 9.0 | 0.00 | 0.00 | 0.00 | 60 | 1010.7 |
| 20260509171553 | 84 | 0 | 1.0 | 9.0 | 0.00 | 0.00 | 0.00 | 59 | 1010.7 |
| 20260509171054 | 85 | 5 | 1.0 | 5.0 | 0.00 | 0.00 | 0.00 | 58 | 1010.6 |
| 20260509170554 | 84 | 11 | 1.0 | 4.0 | 0.00 | 0.00 | 0.00 | 59 | 1010.8 |
| 20260509170100 | 85 | 51 | 1.0 | 7.0 | 0.00 | 0.00 | 0.00 | 58 | 1010.8 |
| 20260509165556 | 85 | 270 | 1.0 | 7.0 | 0.00 | 0.00 | 0.00 | 57 | 1010.8 |
| 20260509165058 | 84 | 272 | 1.0 | 5.0 | 0.00 | 0.00 | 0.00 | 59 | 1010.9 |
| 20260509164556 | 84 | 69 | 1.0 | 7.0 | 0.00 | 0.00 | 0.00 | 60 | 1011.0 |
| 20260509164058 | 84 | 334 | 2.0 | 7.0 | 0.00 | 0.00 | 0.00 | 59 | 1011.1 |
| 20260509163558 | 84 | 14 | 1.0 | 4.0 | 0.00 | 0.00 | 0.00 | 58 | 1011.1 |
| 20260509163059 | 84 | 262 | 1.0 | 6.0 | 0.00 | 0.00 | 0.00 | 59 | 1011.1 |
| 20260509162556 | 83 | 350 | 1.0 | 6.0 | 0.00 | 0.00 | 0.00 | 59 | 1011.2 |
| 20260509162057 | 84 | 360 | 1.0 | 5.0 | 0.00 | 0.00 | 0.00 | 58 | 1011.1 |
| 20260509161556 | 83 | 0 | 1.0 | 8.0 | 0.00 | 0.00 | 0.00 | 59 | 1011.0 |
| 20260509161059 | 83 | 0 | 3.0 | 8.0 | 0.00 | 0.00 | 0.00 | 57 | 1011.0 |
| 20260509160556 | 83 | 335 | 1.0 | 9.0 | 0.00 | 0.00 | 0.00 | 60 | 1011.0 |
| 20260509160055 | 82 | 0 | 1.0 | 9.0 | 0.00 | 0.00 | 0.00 | 61 | 1011.0 |
| 20260509155557 | 82 | 349 | 2.0 | 9.0 | 0.00 | 0.00 | 0.00 | 61 | 1011.0 |
| 20260509155055 | 81 | 293 | 2.0 | 4.0 | 0.00 | 0.00 | 0.00 | 61 | 1010.9 |
| 20260509154553 | 82 | 327 | 1.0 | 8.0 | 0.00 | 0.00 | 0.00 | 61 | 1011.0 |
| 20260509154056 | 82 | 0 | 2.0 | 8.0 | 0.00 | 0.00 | 0.00 | 60 | 1010.9 |
| 20260509153555 | 82 | 296 | 2.0 | 7.0 | 0.00 | 0.00 | 0.00 | 60 | 1010.9 |
| 20260509153110 | 82 | 261 | 2.0 | 8.0 | 0.00 | 0.00 | 0.00 | 60 | 1010.9 |
| 20260509152556 | 82 | 0 | 2.0 | 8.0 | 0.00 | 0.00 | 0.00 | 62 | 1010.9 |
| 20260509152056 | 82 | 300 | 1.0 | 8.0 | 0.00 | 0.00 | 0.00 | 61 | 1010.9 |
| 20260509151556 | 81 | 263 | 2.0 | 8.0 | 0.00 | 0.00 | 0.00 | 63 | 1011.0 |
| 20260509151101 | 80 | 275 | 3.0 | 7.0 | 0.00 | 0.00 | 0.00 | 62 | 1011.0 |
| 20260509150556 | 80 | 0 | 2.0 | 7.0 | 0.00 | 0.00 | 0.00 | 64 | 1011.0 |
| 20260509150054 | 80 | 279 | 2.0 | 7.0 | 0.00 | 0.00 | 0.00 | 64 | 1011.0 |
| 20260509145556 | 80 | 275 | 2.0 | 7.0 | 0.00 | 0.00 | 0.00 | 65 | 1011.0 |
| 20260509145055 | 80 | 288 | 1.0 | 6.0 | 0.00 | 0.00 | 0.00 | 66 | 1011.0 |
| 20260509144554 | 79 | 303 | 0.0 | 4.0 | 0.00 | 0.00 | 0.00 | 69 | 1011.0 |
| 20260509144055 | 79 | 296 | 1.0 | 7.0 | 0.00 | 0.00 | 0.00 | 70 | 1011.0 |
| 20260509143555 | 78 | 306 | 1.0 | 7.0 | 0.00 | 0.00 | 0.00 | 70 | 1011.0 |
| 20260509143055 | 77 | 295 | 2.0 | 7.0 | 0.00 | 0.00 | 0.00 | 72 | 1011.0 |
| 20260509142558 | 77 | 10 | 2.0 | 5.0 | 0.00 | 0.00 | 0.00 | 73 | 1011.0 |
| 20260509142056 | 76 | 348 | 0.0 | 6.0 | 0.00 | 0.00 | 0.00 | 76 | 1011.0 |
| 20260509141554 | 76 | 263 | 1.0 | 6.0 | 0.00 | 0.00 | 0.00 | 78 | 1011.0 |
| 20260509141100 | 75 | 274 | 1.0 | 6.0 | 0.00 | 0.00 | 0.00 | 80 | 1011.0 |
| 20260509140556 | 74 | 350 | 0.0 | 5.0 | 0.00 | 0.00 | 0.00 | 81 | 1011.0 |
| 20260509140056 | 74 | 0 | 0.0 | 5.0 | 0.00 | 0.00 | 0.00 | 82 | 1011.0 |
| 20260509135556 | 73 | 355 | 1.0 | 5.0 | 0.00 | 0.00 | 0.00 | 83 | 1011.1 |
| 20260509135056 | 73 | 0 | 0.0 | 4.0 | 0.00 | 0.00 | 0.00 | 84 | 1011.0 |
| 20260509134554 | 72 | 289 | 1.0 | 4.0 | 0.00 | 0.00 | 0.00 | 85 | 1011.0 |
| 20260509134054 | 71 | 346 | 1.0 | 4.0 | 0.00 | 0.00 | 0.00 | 86 | 1010.9 |
| 20260509133558 | 71 | 286 | 1.0 | 4.0 | 0.00 | 0.00 | 0.00 | 86 | 1010.9 |
| 20260509133053 | 71 | 0 | 0.0 | 4.0 | 0.00 | 0.00 | 0.00 | 87 | 1010.9 |
| 20260509132555 | 70 | 0 | 1.0 | 4.0 | 0.00 | 0.00 | 0.00 | 88 | 1010.8 |
| 20260509132058 | 70 | 0 | 0.0 | 7.0 | 0.00 | 0.00 | 0.00 | 88 | 1010.8 |
| 20260509131557 | 69 | 264 | 3.0 | 7.0 | 0.00 | 0.00 | 0.00 | 89 | 1010.9 |
| 20260509131054 | 69 | 266 | 1.0 | 4.0 | 0.00 | 0.00 | 0.00 | 90 | 1010.8 |
| 20260509130556 | 69 | 0 | 0.0 | 4.0 | 0.00 | 0.00 | 0.00 | 90 | 1010.8 |
| 20260509130106 | 69 | 292 | 1.0 | 4.0 | 0.00 | 0.00 | 0.00 | 90 | 1010.9 |
| 20260509125556 | 68 | 0 | 1.0 | 4.0 | 0.00 | 0.00 | 0.00 | 90 | 1010.9 |
| 20260509125055 | 68 | 267 | 1.0 | 4.0 | 0.00 | 0.00 | 0.00 | 90 | 1010.9 |
| 20260509124558 | 68 | 0 | 1.0 | 4.0 | 0.00 | 0.00 | 0.00 | 90 | 1010.8 |
| 20260509124058 | 68 | 274 | 0.0 | 4.0 | 0.00 | 0.00 | 0.00 | 90 | 1010.7 |
| 20260509123555 | 68 | 262 | 0.0 | 4.0 | 0.00 | 0.00 | 0.00 | 90 | 1010.7 |
| 20260509123058 | 68 | 285 | 1.0 | 4.0 | 0.00 | 0.00 | 0.00 | 90 | 1010.8 |
| 20260509122554 | 68 | 283 | 0.0 | 4.0 | 0.00 | 0.00 | 0.00 | 90 | 1010.6 |
| 20260509122054 | 67 | 0 | 2.0 | 4.0 | 0.00 | 0.00 | 0.00 | 90 | 1010.7 |
| 20260509121625 | 68 | 281 | 1.0 | 4.0 | 0.00 | 0.00 | 0.00 | 90 | 1010.7 |
| 20260509121055 | 68 | 279 | 1.0 | 4.0 | 0.00 | 0.00 | 0.00 | 90 | 1010.7 |
| 20260509120557 | 68 | 281 | 1.0 | 4.0 | 0.00 | 0.00 | 0.00 | 90 | 1010.7 |
| 20260509120110 | 68 | 274 | 1.0 | 6.0 | 0.00 | 0.00 | 0.00 | 90 | 1010.5 |
| 20260509115554 | 68 | 277 | 1.0 | 6.0 | 0.00 | 0.11 | 0.00 | 90 | 1010.5 |
| 20260509115054 | 68 | 0 | 1.0 | 6.0 | 0.00 | 0.11 | 0.00 | 90 | 1010.5 |
| 20260509114604 | 68 | 268 | 1.0 | 6.0 | 0.00 | 0.11 | 0.00 | 90 | 1010.4 |
| 20260509114054 | 68 | 287 | 2.0 | 4.0 | 0.00 | 0.11 | 0.00 | 90 | 1010.5 |
| 20260509113553 | 68 | 296 | 1.0 | 4.0 | 0.00 | 0.11 | 0.00 | 90 | 1010.3 |
| 20260509113108 | 67 | 306 | 1.0 | 3.0 | 0.00 | 0.11 | 0.00 | 90 | 1010.3 |
| 20260509112555 | 67 | 306 | 0.0 | 2.0 | 0.00 | 0.11 | 0.00 | 90 | 1010.2 |
| 20260509112055 | 67 | 288 | 0.0 | 6.0 | 0.00 | 0.11 | 0.00 | 89 | 1009.9 |
| 20260509111606 | 67 | 0 | 1.0 | 6.0 | 0.00 | 0.11 | 0.00 | 89 | 1010.0 |
| 20260509111054 | 67 | 288 | 0.0 | 3.0 | 0.00 | 0.11 | 0.00 | 89 | 1010.0 |
| 20260509110558 | 67 | 289 | 1.0 | 3.0 | 0.00 | 0.11 | 0.00 | 89 | 1009.9 |
| 20260509110109 | 67 | 0 | 0.0 | 4.0 | 0.00 | 0.11 | 0.00 | 89 | 1009.8 |
| 20260509105554 | 67 | 0 | 1.0 | 4.0 | 0.00 | 0.15 | 0.00 | 89 | 1009.6 |
| 20260509105055 | 67 | 352 | 0.0 | 3.0 | 0.00 | 0.15 | 0.00 | 89 | 1009.3 |
| 20260509104559 | 67 | 352 | 0.0 | 3.0 | 0.00 | 0.15 | 0.00 | 89 | 1009.2 |
| 20260509104055 | 68 | 0 | 0.0 | 3.0 | 0.00 | 0.15 | 0.00 | 89 | 1009.2 |
| 20260509103556 | 68 | 352 | 0.0 | 3.0 | 0.00 | 0.15 | 0.00 | 89 | 1009.1 |
| 20260509103104 | 68 | 0 | 1.0 | 3.0 | 0.00 | 0.15 | 0.00 | 89 | 1009.1 |
| 20260509102554 | 68 | 360 | 0.0 | 1.0 | 0.00 | 0.15 | 0.00 | 88 | 1009.2 |